Location: İstanbul
(41.0082°N, 28.9784°E)
Time: 20:27:16
(UTC+03:00)

NOAA 19 - Pass Details

Date: 03 May 2024
Orbit: 839 x 859 km, 99.0° (Epoch: 29 May)

Event Time Altitude Azimuth Distance (km) Brightness Sun altitude
Exits shadow 21:24:34 17° 151° (SSE) 1,978 6.6 -14.2°
Maximum altitude 21:28:43 67° 73° (ENE) 911 5.2 -14.8°
Drops below altitude 10° 21:34:07 10° 352° (N) 2,463 8.3 -15.6°
Sets 21:36:30 0° 349° (N) 3,402 9.2 -15.9°
